[[{"header":{"parameterUnit":"m.s-1","parameterCategory":1,"la1":30.2991,"la2":30.254,"lo1":-89.0895,"lo2":-89.0444,"dy":0.0017,"dx":0.0017,"nx":28,"ny":28,"refTime":"2025-06-14T03:00:00:Z","depth":0,"parameterNumber":2,"parameterNumberName":"U-component_of_WINDS"},"data":[0,0,0,0,0,0,0,0,0,0,0,0,0,0,0,0,0,0,0,0,0,0,0,0,0,0,0,0,0,0,0,0,0,0,0,0,0,0,0,0,0,0,0,0,0,0,0,0,0,0,0,0,0,0,0,0,0,0,1.2036,1.2037,0,1.2106,1.2107,1.2107,1.2139,1.2139,1.2139,1.2139,1.2212,1.2214,1.2216,0,0,0,0,0,0,0,0,0,0,0,0,0,1.1931,1.1933,1.2036,1.2037,1.2038,1.2106,1.2107,1.2108,1.2139,1.2139,1.2139,1.2139,1.2211,1.2214,1.2216,0,0,0,0,0,0,0,0,0,0,0,0,0,1.1986,1.1934,1.2036,1.2061,1.2064,1.2105,1.2107,1.2108,1.2139,1.2139,1.2139,1.2139,1.2211,1.2214,1.2217,1.2238,0,0,1.2226,1.2227,0,0,0,0,0,0,0,0,1.1983,1.199,1.2057,1.206,1.2063,1.2113,1.2097,1.2151,1.2139,1.2111,1.2139,1.2139,1.218,1.2185,1.2199,1.2241,1.2244,1.2226,1.2228,1.2229,1.223,0,0,0,0,0,0,0,1.1979,1.1987,1.2064,1.2058,1.2062,1.207,1.2078,1.2107,1.2145,1.2113,1.2116,1.2123,1.2181,1.2196,1.22,1.2245,1.2226,1.2229,1.2231,1.2232,1.2309,1.231,0,0,0,0,0,0,1.1971,1.1984,1.2061,1.2066,1.2022,1.2072,1.2081,1.2098,1.2145,1.2152,1.2123,1.2125,1.219,1.2197,1.2203,1.2231,1.2229,1.2232,1.2234,1.2309,1.2309,1.231,0,0,0,0,0,0,1.1969,1.1978,1.2059,1.2026,1.2036,1.2074,1.2093,1.2099,1.2113,1.2152,1.216,1.2131,1.2191,1.2199,1.2229,1.2234,1.2234,1.2236,1.2309,1.2309,1.231,1.2287,0,0,0,0,0,0,1.1966,1.1977,1.1985,1.2025,1.2038,1.2082,1.2093,1.21,1.2118,1.212,1.2161,1.2168,1.2191,1.2224,1.2232,1.2238,1.2239,1.2309,1.2309,1.2309,1.2288,1.2287,1.2286,0,0,0,0,0,1.1962,1.1976,1.1985,1.1994,1.2049,1.2083,1.209,1.2116,1.2118,1.2127,1.2152,1.2167,1.2232,1.2227,1.2236,1.2243,1.2308,1.2309,1.2309,1.2288,1.2287,1.2286,0,0,0,0,0,0,1.1936,1.1982,1.1992,1.202,1.2047,1.2088,1.21,1.2114,1.2141,1.2142,1.2173,1.2182,1.2209,1.223,1.2223,1.2267,1.2272,1.2274,1.2252,1.2252,1.2251,1.2246,1.2241,0,0,0,0,0,1.1933,1.1956,1.1996,1.2016,1.2029,1.2062,1.2078,1.2095,1.2125,1.2136,1.2164,1.2192,1.222,1.2237,1.2264,1.2291,1.23,1.23,1.23,1.2299,1.2301,1.2317,1.2317,1.2311,1.2311,1.2311,0,0,1.1928,1.1956,1.1969,1.2012,1.2035,1.2058,1.2072,1.2096,1.2114,1.214,1.217,1.2191,1.2225,1.2254,1.2268,1.2271,1.2304,1.2299,1.2298,1.2301,1.2317,1.2318,1.2318,1.2312,1.2312,1.2312,0,0,1.1931,1.1954,1.1974,1.1997,1.2032,1.2053,1.2058,1.2097,1.2111,1.2142,1.2162,1.2184,1.223,1.2253,1.2271,1.2283,1.2297,1.2291,1.2287,1.2302,1.2302,1.2303,1.2307,1.2309,1.2293,1.2292,1.2292,0,1.1921,1.1957,1.1983,1.2006,1.2025,1.2049,1.207,1.2091,1.2132,1.2145,1.2148,1.2206,1.2231,1.2265,1.2268,1.2281,1.2288,1.2287,1.23,1.2301,1.2302,1.2307,1.2308,1.2291,1.2292,1.2292,1.2292,0,1.1942,1.1967,1.1979,1.2018,1.2038,1.206,1.209,1.2107,1.2122,1.2144,1.2174,1.2205,1.2238,1.2248,1.2263,1.2284,1.2286,1.2294,1.23,1.2301,1.2306,1.2308,1.229,1.229,1.2291,1.2291,0,0,1.1931,1.1984,1.1988,1.2006,1.2046,1.2066,1.2089,1.2121,1.2135,1.2163,1.2184,1.2222,1.223,1.225,1.2269,1.2282,1.2289,1.2289,1.229,1.2288,1.2315,1.2308,1.231,1.2299,1.2299,1.23,1.2312,0,1.194,1.1982,1.2006,1.2038,1.2062,1.2085,1.2105,1.2132,1.2152,1.2176,1.2199,1.2225,1.2234,1.2246,1.226,1.2285,1.2295,1.2285,1.2319,1.232,1.231,1.2312,1.2306,1.2316,1.2314,1.2314,1.2315,0,1.1956,1.1983,1.2017,1.2054,1.2065,1.2082,1.2114,1.2136,1.2167,1.2181,1.2203,1.2221,1.2247,1.225,1.2287,1.2279,1.2295,1.2309,1.231,1.2314,1.2317,1.2317,1.232,1.2321,1.2318,1.2318,1.2317,0,1.1944,1.1989,1.2016,1.203,1.2074,1.2086,1.2105,1.2136,1.2154,1.2181,1.2193,1.2224,1.2241,1.2264,1.229,1.229,1.2324,1.233,1.2337,1.2336,1.2343,1.2343,1.2348,1.2353,1.2353,1.2352,1.2352,0,1.1952,1.1972,1.2011,1.2027,1.2051,1.2079,1.2101,1.2122,1.2149,1.217,1.2192,1.2212,1.2245,1.2269,1.2289,1.2316,1.2324,1.2336,1.2342,1.2335,1.2333,1.2345,1.2345,1.2353,1.2353,1.2353,1.2353,0,1.1943,1.197,1.2,1.2039,1.205,1.2065,1.2099,1.2116,1.2137,1.2163,1.2171,1.2205,1.2234,1.2263,1.2302,1.2316,1.2343,1.235,1.2332,1.2335,1.2341,1.234,1.2355,1.2359,1.236,1.236,1.236,0,1.1946,1.1962,1.2003,1.2018,1.2036,1.2061,1.2079,1.2107,1.2125,1.2162,1.2174,1.2205,1.2231,1.2276,1.2304,1.2334,1.2343,1.2346,1.2347,1.234,1.2343,1.2342,1.2344,1.2345,1.2345,1.2345,1.2345,0,1.1949,1.1961,1.1986,1.2016,1.2037,1.2062,1.2088,1.2099,1.2133,1.2152,1.2181,1.2201,1.2241,1.2271,1.2304,1.2325,1.234,1.2344,1.2347,1.234,1.2329,1.2336,1.233,1.2343,1.2344,1.2344,1.2344,1.2344,1.1946,1.1962,1.1993,1.202,1.2042,1.2066,1.2083,1.2107,1.2132,1.2166,1.2181,1.2211,1.2242,1.2288,1.2308,1.2332,1.2336,1.2341,1.2342,1.2343,1.2341,1.2325,1.2338,1.2338,1.2338,1.2338,1.2338,0,1.195,1.1971,1.1996,1.2031,1.2053,1.2065,1.2094,1.2112,1.2137,1.2164,1.2189,1.2223,1.2252,1.2283,1.2314,1.2328,1.2336,1.2335,1.2334,1.2339,1.2336,1.233,1.2328,1.2328,1.2328,1.2328,1.2328,1.2328,1.1955,1.1982,1.1998,1.2036,1.2057,1.2086,1.2101,1.2123,1.2145,1.2182,1.2206,1.2226,1.2254,1.2288,1.2315,1.2323,1.2334,1.2331,1.2342,1.2338,1.2339,1.234,1.2334,1.2333,1.2333,1.2343,1.2343,1.2343]},{"header":{"parameterUnit":"m.s-1","parameterCategory":1,"la1":30.2991,"la2":30.254,"lo1":-89.0895,"lo2":-89.0444,"dy":0.0017,"dx":0.0017,"nx":28,"ny":28,"refTime":"2025-06-14T03:00:00:Z","depth":0,"parameterNumber":3,"parameterNumberName":"V-component_of_WINDS"},"data":[0,0,0,0,0,0,0,0,0,0,0,0,0,0,0,0,0,0,0,0,0,0,0,0,0,0,0,0,0,0,0,0,0,0,0,0,0,0,0,0,0,0,0,0,0,0,0,0,0,0,0,0,0,0,0,0,0,0,3.9027,3.9027,0,3.9039,3.9039,3.9039,3.9066,3.9066,3.9067,3.9067,3.9077,3.9076,3.9076,0,0,0,0,0,0,0,0,0,0,0,0,0,3.9026,3.9026,3.9027,3.9027,3.9028,3.9039,3.9039,3.9039,3.9065,3.9066,3.9067,3.9067,3.9077,3.9076,3.9076,0,0,0,0,0,0,0,0,0,0,0,0,0,3.9031,3.9026,3.9027,3.9042,3.9044,3.9039,3.9039,3.9039,3.9065,3.9066,3.9067,3.9068,3.9077,3.9076,3.9076,3.9057,0,0,3.9075,3.9075,0,0,0,0,0,0,0,0,3.903,3.9031,3.904,3.9041,3.9043,3.9052,3.9042,3.9045,3.9065,3.9057,3.9067,3.9068,3.9068,3.9068,3.9068,3.9058,3.9058,3.9075,3.9075,3.9074,3.9074,0,0,0,0,0,0,0,3.903,3.903,3.9032,3.904,3.9042,3.9048,3.9049,3.9043,3.9057,3.9058,3.906,3.9061,3.9068,3.9069,3.9069,3.9058,3.9075,3.9074,3.9074,3.9074,3.9032,3.9032,0,0,0,0,0,0,3.9028,3.903,3.9031,3.9032,3.9039,3.9047,3.9049,3.9048,3.9058,3.906,3.906,3.9062,3.9069,3.9069,3.9069,3.9047,3.9074,3.9074,3.9074,3.9033,3.9032,3.9031,0,0,0,0,0,0,3.9028,3.9028,3.9031,3.9032,3.9032,3.9046,3.9045,3.9048,3.9048,3.9059,3.9062,3.9058,3.9069,3.907,3.906,3.9048,3.9074,3.9074,3.9034,3.9033,3.9032,3.9004,0,0,0,0,0,0,3.9028,3.9028,3.9021,3.9031,3.9032,3.9022,3.9044,3.9047,3.9047,3.905,3.9058,3.906,3.907,3.906,3.906,3.9048,3.9073,3.9035,3.9034,3.9032,3.9006,3.9002,3.8998,0,0,0,0,0,3.9028,3.9012,3.902,3.902,3.9024,3.9021,3.9022,3.9035,3.9046,3.9039,3.9047,3.9059,3.905,3.9059,3.9059,3.9046,3.9036,3.9034,3.9032,3.9007,3.9002,3.8998,0,0,0,0,0,0,3.8999,3.9014,3.9023,3.9011,3.9015,3.9026,3.9017,3.9029,3.9029,3.9032,3.9047,3.9049,3.9037,3.9041,3.9051,3.9029,3.9045,3.9043,3.9026,3.9022,3.9018,3.9017,3.9073,0,0,0,0,0,3.8991,3.8988,3.9001,3.8989,3.899,3.9004,3.9003,3.9013,3.9017,3.9019,3.9025,3.9029,3.9026,3.9024,3.9023,3.9007,3.9008,3.8998,3.8994,3.8991,3.8989,3.898,3.8976,3.9025,3.9025,3.9025,0,0,3.8975,3.8983,3.898,3.8983,3.8988,3.8983,3.9005,3.9,3.8997,3.9018,3.9009,3.9014,3.9019,3.9006,3.9,3.9009,3.8976,3.8989,3.8986,3.8985,3.8978,3.8973,3.8969,3.9023,3.9024,3.9024,0,0,3.8943,3.8949,3.894,3.8944,3.8951,3.896,3.8957,3.8967,3.8971,3.8963,3.8979,3.8975,3.8971,3.8974,3.8974,3.8945,3.8956,3.8944,3.8923,3.8915,3.8911,3.8908,3.8897,3.8892,3.8942,3.8942,3.8941,0,3.8922,3.8917,3.8933,3.8927,3.8928,3.8948,3.8938,3.8941,3.8946,3.8946,3.8956,3.8951,3.8956,3.8944,3.8936,3.8937,3.8934,3.8943,3.8911,3.8907,3.8904,3.8894,3.889,3.894,3.894,3.894,3.894,0,3.8891,3.8887,3.8879,3.8884,3.8885,3.8876,3.889,3.8888,3.8898,3.8906,3.8897,3.8904,3.8904,3.8902,3.8911,3.8891,3.8896,3.8908,3.8924,3.8898,3.8888,3.8884,3.8938,3.8938,3.8939,3.8939,0,0,3.884,3.8856,3.8852,3.8855,3.8864,3.8861,3.8854,3.8855,3.8853,3.8856,3.885,3.8847,3.8858,3.8859,3.8869,3.8861,3.8837,3.8874,3.8874,3.8866,3.8815,3.8805,3.88,3.8845,3.8844,3.8844,3.8814,0,3.881,3.88,3.8814,3.88,3.8797,3.8816,3.881,3.8814,3.8821,3.8819,3.8827,3.8824,3.8839,3.884,3.8834,3.8841,3.8827,3.8844,3.8839,3.8838,3.8836,3.8796,3.8785,3.8757,3.8811,3.881,3.8809,0,3.8774,3.8776,3.8762,3.8773,3.8772,3.8766,3.8768,3.8766,3.8772,3.8777,3.8779,3.8791,3.8784,3.8801,3.8791,3.8803,3.8801,3.8805,3.8804,3.8803,3.8822,3.8793,3.8748,3.8744,3.8804,3.8804,3.8805,0,3.8738,3.8738,3.8729,3.8731,3.8743,3.8739,3.8743,3.875,3.875,3.8751,3.8751,3.8752,3.8752,3.8752,3.8764,3.8775,3.8753,3.877,3.8756,3.8756,3.875,3.875,3.8704,3.875,3.8751,3.8751,3.8751,0,3.8702,3.8693,3.8713,3.8708,3.8698,3.8714,3.8703,3.871,3.8715,3.8711,3.8728,3.8724,3.874,3.8737,3.8746,3.8737,3.8737,3.8741,3.8743,3.8739,3.8738,3.8738,3.874,3.875,3.875,3.875,3.875,0,3.866,3.8674,3.8666,3.8678,3.8681,3.8673,3.8683,3.8678,3.8687,3.8682,3.8681,3.8695,3.8692,3.8705,3.8704,3.871,3.8696,3.8702,3.8694,3.8696,3.8681,3.8682,3.8632,3.8626,3.8677,3.8676,3.8676,0,3.8636,3.863,3.8642,3.8641,3.8645,3.8643,3.8643,3.8659,3.8658,3.8664,3.8658,3.8658,3.8658,3.8653,3.8662,3.8662,3.8668,3.865,3.8667,3.8663,3.8667,3.8667,3.8666,3.8646,3.8646,3.8645,3.8645,0,3.8592,3.86,3.86,3.8602,3.8602,3.8605,3.8608,3.8606,3.8623,3.8622,3.862,3.862,3.862,3.8619,3.8621,3.8625,3.8637,3.8639,3.8636,3.8631,3.8627,3.8628,3.8683,3.864,3.8641,3.8641,3.8641,3.8641,3.8558,3.8553,3.8561,3.8561,3.8565,3.8569,3.8565,3.8574,3.8573,3.8575,3.8584,3.858,3.8586,3.859,3.8593,3.859,3.8598,3.8593,3.8592,3.859,3.8587,3.8628,3.859,3.859,3.859,3.8591,3.8591,0,3.8515,3.8521,3.8521,3.8526,3.8525,3.8539,3.8543,3.8542,3.8539,3.8544,3.8544,3.8542,3.8541,3.855,3.855,3.8546,3.8552,3.8545,3.8546,3.8546,3.858,3.8583,3.8541,3.8541,3.8541,3.8541,3.8541,3.8541,3.8492,3.8485,3.8493,3.8487,3.8493,3.8491,3.8492,3.8495,3.8499,3.8496,3.8496,3.8503,3.8509,3.851,3.851,3.8512,3.8511,3.8503,3.8507,3.8539,3.8544,3.8548,3.8551,3.8503,3.8503,3.8474,3.8473,3.8473]}]]